Location: Wells
(51.2093°N, 2.6446°W)
Time: 00:42:54
(UTC+01:00)

STARS - Pass Details

Date: 14 March 2026
Orbit: 575 x 588 km, 98.1° (Epoch: 13 April)

Event Time Altitude Azimuth Distance (km) Brightness Sun altitude
Rises 02:09:06 0° 16° (NNE) 2,803 ? -36.2°
Reaches altitude 10° 02:11:17 10° 20° (NNE) 1,898 ? -36.0°
Enters shadow 02:11:58 14° 22° (NNE) 1,624 ? -36.0°
